IRIDIUM 14 [S]

Last updated on Fri Jul 15 2016 17:38:29 GMT+0000 (Coordinated Universal Time)

1 25777U 99032A 16197.52873237 -.00000014 00000-0 -12036-4 0 9995 2 25777 86.3954 4.6816 0002193 82.3389 337.0719 14.34213237906429
UTC large
Height (km)
Speed (km/s)
/
Latitude / Longitude
Inclination (degrees)
Orbital Period (minutes)
Azimuth
Elevation
Range (km)
Doppler Factor

Next 0 passes for location: London (51.5072 / 0.1276)

Sorry there are no passes over London.